Location: Altleiningen
(49.5078°N, 8.0741°E)
Time: 02:52:36
(UTC+00:00)

NOSS 3-3 (A) - Pass Details

Date: 03 March 2021
Orbit: 816 x 1396 km, 63.4° (Epoch: 19 March)

Event Time Altitude Azimuth Distance (km) Brightness Sun altitude
Rises 20:07:30 0° 317° (NW) 3,924 8.2 -28.3°
Reaches altitude 10° 20:10:03 10° 317° (NW) 3,042 7.4 -28.7°
Maximum altitude 20:17:28 89° 231° (SW) 1,265 4.4 -29.8°
Enters shadow 20:18:42 68° 141° (SE) 1,363 4.4 -29.9°
